Wind_Speed
18 21 23 13 13 12 12 9 4 6 14 23 36 42 27 25 44 41 39 40 36 34 34 30 26 21 21 22 21 21 17 17
16 19 23 8 12 15 9 11 9 8 9 13 27 33 30 27 37 42 42 47 45 39 35 33 28 25 30 25 23 22 20 18
12 14 16 2 14 14 14 14 14 13 17 17 19 24 34 36 37 37 36 41 47 50 44 36 33 31 31 31 24 23 21 21
8 10 10 8 5 15 13 23 15 16 15 17 23 25 34 28 33 37 40 39 35 41 37 40 39 33 33 25 26 26 23 23
6 6 7 6 7 7 13 18 19 21 19 16 15 22 33 17 26 32 33 41 40 36 48 52 45 35 30 25 27 27 26 25
7 4 1 3 6 7 8 11 11 19 23 16 16 22 15 22 25 28 33 32 45 33 32 41 40 34 28 29 29 30 29 28
12 6 3 2 4 6 7 8 9 10 11 14 22 23 23 21 23 30 23 24 24 28 32 36 30 33 31 29 30 31 32 32
14 8 5 4 3 4 5 7 8 9 11 12 14 17 21 19 19 22 25 26 29 31 33 32 32 35 32 34 36 32 38 38
16 12 9 8 6 4 4 5 6 7 8 9 11 12 14 15 17 20 19 18 20 23 21 25 32 38 38 38 37 37 40 42
18 16 11 8 6 6 6 6 6 7 7 7 8 9 11 12 14 15 16 17 20 19 21 24 30 35 36 37 39 40 45 45
20 20 16 11 11 10 9 10 11 11 12 12 10 9 9 10 12 14 15 17 19 21 23 25 27 30 33 38 41 45 49 48
16 17 16 15 14 15 15 14 13 16 18 17 16 16 15 16 16 16 17 20 21 24 26 28 31 35 38 43 47 51 53 55
14 15 17 14 12 15 14 13 15 17 15 19 22 21 20 22 22 22 24 25 25 26 29 33 35 39 42 48 52 51 53 54
18 13 11 13 12 9 13 11 13 15 16 19 21 22 22 29 24 25 28 28 29 30 31 33 35 36 42 43 40 43 45 48
21 16 11 11 11 8 8 7 11 12 13 13 15 18 23 18 21 25 30 30 31 32 34 37 40 38 43 36 36 35 33 30
20 19 15 13 11 11 13 8 7 7 7 7 6 11 14 19 24 26 25 26 28 32 33 34 35 36 34 34 35 33 36 36
22 21 21 18 16 14 15 16 12 12 11 11 13 14 17 18 19 23 25 28 30 31 32 31 32 33 32 32 34 37 40 41
22 22 22 25 23 19 18 21 20 19 19 21 21 21 23 26 26 26 25 26 28 29 30 32 32 34 34 35 37 41 43 45
29 29 26 25 25 26 21 23 24 24 23 25 27 28 28 28 31 29 29 28 30 31 31 32 32 33 32 37 39 40 42 45
Wind_Direction
332 333 330 285 220 184 205 208 217 167 196 181 175 176 187 192 190 189 181 183 192 197 199 203 216 216 210 223 229 232 239 246
333 339 338 287 203 201 192 189 202 218 164 172 197 208 212 213 193 193 194 190 187 193 200 215 208 209 224 223 234 233 242 247
328 346 354 343 192 202 214 214 201 172 196 191 174 183 191 195 189 196 192 192 199 193 198 210 210 214 217 217 235 238 243 246
317 342 10 33 199 212 222 212 202 195 193 191 202 210 194 193 204 209 202 207 208 207 207 210 211 218 220 219 239 241 245 250
279 331 6 49 86 136 201 216 218 217 209 195 212 220 212 224 207 210 214 214 217 226 213 216 219 217 222 230 239 240 244 253
234 252 342 48 99 95 114 130 155 205 222 225 211 190 207 229 212 211 217 223 225 232 225 217 225 222 224 235 239 242 249 255
226 228 226 96 99 120 109 97 98 115 147 203 208 207 223 220 211 215 229 239 238 233 224 220 214 219 222 232 240 248 253 256
219 196 189 179 143 125 131 123 117 113 120 134 156 175 193 196 203 218 222 227 222 215 214 219 221 222 222 232 238 248 258 245
211 182 175 177 175 173 151 159 147 132 127 135 149 156 164 180 194 208 211 208 207 212 218 217 217 221 227 236 241 251 257 257
221 204 185 189 183 176 192 200 192 172 167 170 165 168 173 176 181 190 197 198 209 211 216 220 222 226 232 240 248 256 260 258
219 214 204 201 214 216 211 213 216 211 204 202 200 199 200 205 205 205 206 210 213 218 224 230 235 239 245 250 255 257 259 259
221 213 211 210 219 230 238 235 230 224 223 219 217 220 222 226 227 227 228 229 229 231 235 240 244 247 250 254 257 258 259 261
200 201 208 212 219 230 237 237 240 238 231 229 230 231 240 244 242 241 242 245 247 248 248 250 251 254 257 258 262 269 271 263
197 194 210 218 219 218 223 241 239 227 226 232 231 225 237 241 256 248 250 251 252 253 255 258 261 265 269 276 277 282 280 276
203 209 215 218 218 224 229 212 206 204 205 216 229 234 234 237 242 257 262 254 253 256 257 258 260 264 268 271 264 278 284 281
216 226 231 228 230 236 234 216 199 198 206 221 232 224 230 246 250 252 252 251 254 255 260 264 265 262 269 272 271 274 278 278
238 234 235 240 242 241 241 234 228 229 235 236 235 238 242 248 250 246 248 251 255 258 259 261 263 265 267 271 271 272 273 275
237 233 235 238 233 235 237 235 234 235 242 246 244 244 248 249 247 250 255 260 260 259 262 267 269 269 271 272 273 272 275 276
231 236 241 236 237 231 234 231 233 241 246 250 253 251 252 254 254 257 261 266 263 269 271 273 275 278 276 277 277 274 272 281
Height
3070 3065 3060 3057 3059 3061 3061 3061 3061 3061 3062 3062 3067 3071 3079 3087 3094 3101 3107 3117 3125 3131 3137 3141 3145 3148 3151 3155 3157 3159 3160 3162
3069 3063 3058 3053 3056 3060 3061 3061 3062 3064 3065 3067 3070 3076 3082 3086 3092 3100 3105 3110 3120 3128 3134 3139 3142 3145 3150 3152 3153 3155 3157 3159
3069 3065 3060 3054 3055 3058 3061 3062 3063 3065 3067 3070 3074 3078 3082 3088 3094 3099 3104 3109 3114 3121 3128 3134 3137 3140 3144 3146 3150 3152 3153 3155
3068 3065 3062 3059 3056 3056 3059 3062 3064 3065 3067 3072 3075 3078 3083 3089 3094 3099 3102 3107 3111 3118 3121 3127 3130 3135 3139 3143 3146 3148 3149 3151
3067 3065 3063 3061 3059 3058 3057 3059 3062 3064 3068 3071 3074 3079 3082 3088 3093 3096 3101 3104 3109 3113 3117 3121 3126 3130 3136 3139 3142 3144 3145 3145
3065 3064 3064 3062 3060 3060 3059 3058 3058 3061 3065 3068 3070 3076 3082 3086 3089 3092 3097 3101 3105 3109 3111 3116 3122 3127 3131 3135 3137 3139 3141 3140
3062 3062 3062 3062 3061 3061 3061 3061 3061 3060 3061 3065 3069 3073 3078 3082 3086 3089 3094 3096 3100 3104 3109 3114 3118 3122 3125 3130 3133 3134 3134 3134
3059 3060 3060 3061 3062 3062 3062 3063 3063 3064 3064 3066 3068 3071 3075 3079 3082 3086 3091 3094 3097 3100 3105 3107 3111 3117 3121 3124 3126 3127 3127 3126
3056 3058 3059 3060 3061 3062 3063 3064 3064 3065 3067 3069 3070 3072 3075 3077 3080 3085 3088 3091 3095 3098 3101 3104 3109 3113 3116 3117 3119 3120 3121 3121
3053 3055 3056 3058 3060 3061 3062 3064 3065 3066 3068 3071 3072 3074 3076 3077 3080 3082 3086 3089 3093 3096 3100 3103 3105 3107 3110 3111 3111 3111 3112 3112
3050 3052 3054 3056 3058 3060 3061 3063 3064 3066 3068 3070 3072 3075 3077 3078 3081 3084 3086 3089 3091 3093 3094 3096 3100 3102 3103 3104 3103 3103 3101 3100
3046 3049 3051 3053 3055 3057 3059 3060 3062 3064 3066 3069 3071 3073 3076 3078 3081 3083 3085 3087 3088 3090 3091 3093 3095 3096 3096 3096 3094 3092 3089 3087
3042 3046 3048 3049 3051 3053 3055 3056 3058 3060 3062 3064 3066 3069 3071 3074 3077 3080 3082 3084 3085 3087 3088 3089 3089 3090 3089 3086 3082 3080 3074 3073
3039 3043 3046 3047 3048 3049 3051 3051 3053 3054 3056 3059 3061 3062 3065 3069 3072 3074 3076 3079 3080 3081 3081 3080 3080 3080 3077 3070 3073 3071 3067 3062
3037 3038 3042 3044 3045 3046 3047 3048 3049 3050 3052 3054 3056 3058 3061 3063 3065 3066 3068 3070 3070 3070 3070 3070 3070 3069 3067 3067 3064 3062 3057 3053
3033 3035 3037 3039 3041 3042 3044 3045 3046 3048 3049 3050 3052 3053 3055 3057 3058 3059 3060 3060 3061 3061 3061 3061 3061 3061 3059 3056 3054 3051 3049 3046
3028 3030 3031 3035 3037 3039 3040 3041 3043 3044 3045 3047 3048 3049 3051 3052 3053 3053 3053 3054 3053 3052 3052 3052 3051 3050 3049 3047 3045 3042 3040 3037
3022 3025 3027 3029 3032 3034 3035 3035 3037 3039 3040 3041 3042 3043 3044 3044 3045 3046 3046 3046 3045 3045 3044 3043 3041 3040 3039 3037 3035 3031 3030 3027
3014 3017 3019 3021 3024 3027 3029 3031 3032 3033 3034 3035 3036 3036 3037 3037 3037 3038 3038 3038 3037 3036 3034 3033 3030 3028 3027 3025 3024 3021 3018 3014